Regional Weather Roundup
Issued by NWS

Home | Current Version | Previous Version | Text Only | Print | Product List | Glossary Off
Versions: 1 2 3 4 5 6 7 8 9 10 11 12 13 14 15 16 17 18 19 20 21 22 23 24 25 26 27 28 29 30 31 32 33 34 35 36 37 38 39 40 41 42 43 44 45 46 47 48 49 50

000
ASUS43 KLOT 251807
RWRIL

ILLINOIS REGIONAL WEATHER ROUNDUP
NATIONAL WEATHER SERVICE CHICAGO/ROMEOVILLE IL
100 PM CDT TUE APR 25 2017

NOTE: "FAIR" INDICATES FEW OR NO CLOUDS BELOW 12,000 FEET WITH NO
SIGNIFICANT WEATHER AND/OR OBSTRUCTIONS TO VISIBILITY.

* THESE STATIONS ARE NOT UNDER NWS QUALITY CONTROL. THEY ALSO MAY NOT
  REPORT WEATHER SUCH AS PRECIPITATION OR FOG.

ILZ001-002-007-009-015-016-024-251900-
NORTHWEST ILLINOIS

CITY           SKY/WX    TMP DP  RH WIND       PRES   REMARKS
MOLINE         PTSUNNY   76  46  34 SE22      29.54F
6HR MIN TEMP:  54; 6HR MAX TEMP:  76;

STERLING*      CLOUDY    73  43  33 S10G16    29.61F
SAVANNA*       CLOUDY    73  42  32 S14       29.57F
$$

ILZ003-004-008-010-011-017-018-251900-
NORTH CENTRAL ILLINOIS

CITY           SKY/WX    TMP DP  RH WIND       PRES   REMARKS
ROCKFORD       CLOUDY    73  48  41 S17G28    29.63F
6HR MIN TEMP:  54; 6HR MAX TEMP:  76;

FREEPORT*      PTSUNNY   72  44  37 S15G25    29.63S
ROCHELLE*      CLOUDY    74  48  39 S22       29.63F
DE KALB*       CLOUDY    73  50  45 S18       29.65F
PERU*          CLOUDY    73  44  35 S13G21    29.62F
$$

ILZ005-006-012>014-019>023-251900-
NORTHEAST ILLINOIS

CITY           SKY/WX    TMP DP  RH WIND       PRES   REMARKS
CHICAGO-OHARE  PTSUNNY   75  49  39 S12G21    29.64F
6HR MIN TEMP:  57; 6HR MAX TEMP:  76;

CHICAGO-MIDWAY PTSUNNY   77  48  35 S15G22    29.65F
6HR MIN TEMP:  58; 6HR MAX TEMP:  77;

AURORA         MOSUNNY   75  50  41 S18G24    29.64F
6HR MIN TEMP:  53; 6HR MAX TEMP:  76;

LANSING*       SUNNY     75  55  50 S10G16    29.68F
JOLIET*        SUNNY     76  52  42 S16       29.65F
WAUKEGAN       CLOUDY    66  52  60 SE17      29.66F
6HR MIN TEMP:  51; 6HR MAX TEMP:  67;

DUPAGE AIRPORT MOSUNNY   73  53  49 S12       29.64F
6HR MIN TEMP:  55; 6HR MAX TEMP:  74;

KANKAKEE*      SUNNY     81  52  37 SE15      29.67F HX  80
WHEELING       PTSUNNY   74  53  48 S17G23    29.66F
6HR MIN TEMP:  56; 6HR MAX TEMP:  74;

MORRIS*        MOSUNNY   77  48  35 S16G23    29.63F
ROMEOVILLE*    SUNNY     75  55  49 S15       29.64F
NORTHERLY ISL    N/A     63  51  65 E10         N/A
$$

LMZ740>746-251900-
SOUTHERN LAKE MICHIGAN

STATION/POSITION SKY/WX   TEMP    WIND        PRES    VSBY  WAVE
                          AIR SEA DIR/SP/G                  HT/PER
                          (F)     (DEG/KT/KT) (MB)    (MI)  (FT/S)
SOUTHERN BUOY              47 41  130/  8/ 10 1006.8          1/ 3
HARRISON CRIB              65     140/ 20/ 20   N/A
BURNHAM HARBOR             63     100/  9/ 11   N/A
CALUMET HARBOR             73     150/ 12/ 15 1004.4F
BURNS HARBOR               74     160/  7/ 15 1006.1F
MICHIGAN CITY              70     160/ 12/ 15   N/A
ST. JOSEPH                 62 50  170/  8/  8 1006.0          1
$$

ILZ025>027-034>036-040-047-049-050-058-095>099-251900-
WEST-CENTRAL ILLINOIS

CITY           SKY/WX    TMP DP  RH WIND       PRES   REMARKS
QUINCY         MOSUNNY   73  49  42 SE13G23   29.52F
GALESBURG*     CLOUDY    74  46  37 SE13G21   29.55F
MACOMB*        MOSUNNY   77  43  30 SE20G29   29.58F
JACKSONVILLE*  CLOUDY    76  46  34 S18       29.57F
PITTSFIELD*    MOSUNNY   76  50  39 SE17G25   29.55F
$$

ILZ028>032-037-038-041>044-048-051>054-059>061-251900-
CENTRAL ILLINOIS

CITY           SKY/WX    TMP DP  RH WIND       PRES   REMARKS
PONTIAC        MOSUNNY   78  48  33 S17G23    29.64F
BLOOMINGTON    SUNNY     76  50  40 S20G29    29.64F
DECATUR        SUNNY     76  54  46 S15G23    29.65F
PEORIA         PTSUNNY   74  44  34 S15G22    29.59F
6HR MIN TEMP:  54; 6HR MAX TEMP:  75;

LACON*         CLOUDY    73  46  39 S8        29.60F
LINCOLN*       MOSUNNY   76  46  34 S10G21    29.61F
SPRINGFIELD    MOSUNNY   76  45  33 S17G26    29.61F
6HR MIN TEMP:  57; 6HR MAX TEMP:  78;

TAYLORVILLE    MOSUNNY   75  44  32 S18G24    29.63F
6HR MIN TEMP:  53; 6HR MAX TEMP:  77;

$$

ILZ033-039-045-046-055>057-062-063-251900-
EAST-CENTRAL ILLINOIS

CITY           SKY/WX    TMP DP  RH WIND       PRES   REMARKS
CHAMPAIGN      SUNNY     78  49  35 S18G29    29.66F
RANTOUL*       SUNNY     80  51  36 S15G23    29.67F HX  80
MATTOON        SUNNY     74  56  53 S17G25    29.68F
PARIS*         MOSUNNY   76  55  47 SE16      29.71F
$$

ILZ079-100>102-251900-
SOUTHWEST ILLINOIS

CITY           SKY/WX    TMP DP  RH WIND       PRES   REMARKS
ALTON          PTSUNNY   73  48  40 S17G26    29.60F
BELLEVILLE     MOSUNNY   77  51  39 E14G21    29.61F
CAHOKIA*       MOSUNNY   77  51  40 SE16G26   29.60F
SPARTA*        SUNNY     74  52  46 SE16G24   29.65F
$$

ILZ064>066-069>071-074>076-080>082-084>086-088>090-092>094-251900-
SOUTH-CENTRAL ILLINOIS

CITY           SKY/WX    TMP DP  RH WIND       PRES   REMARKS
CARBONDALE     SUNNY     75  57  53 S9        29.67F
6HR MIN TEMP:  51; 6HR MAX TEMP:  75;

CAIRO*         SUNNY     75  55  49 S13       29.69F
EFFINGHAM*     SUNNY     75  56  51 S14G22    29.70F
MARION         MOSUNNY   75  55  50 S12G18    29.70F
MT. VERNON     SUNNY     76  57  51 S8        29.68F
CENTRALIA*     SUNNY     76  56  50 SE13G21   29.66F
SALEM*         SUNNY     78  54  43 S16       29.67F
METROPOLIS*    SUNNY     76  55  48 S9        29.71F
$$

ILZ067-068-072-073-078-083-087-091-251900-
SOUTHEAST ILLINOIS

CITY           SKY/WX    TMP DP  RH WIND       PRES   REMARKS
LAWRENCEVILLE  MOSUNNY   76  54  46 SE15G22   29.72F
FLORA*         SUNNY     76  57  52 S14G21    29.70F
FAIRFIELD*     MOSUNNY   75  57  53 SE10      29.69F
HARRISBURG*    MOSUNNY   75  60  58 SE12      29.70F
ROBINSON*      MOSUNNY   74  54  49 S15       29.72S
CARMI*         SUNNY     74  58  58 SE13G20   29.71S
$$

ABBREVIATIONS USED IN REMARKS
   TC - TEMPERATURE IN CELSIUS
  WCI - WIND CHILL INDEX
   HX - HEAT INDEX
  VSB - VISIBILITY
$$




USA.gov is the U.S. government's official web portal to all federal, state and local government web resources and services.